ACME9 KOFF-KEDW

Flight info

Callsign ACME9
Flight time N/A
Altitude 43000
Route LNK J146 HBU J128 TBC J64 HEC J6 HELDE
Aircraft C17/H-SDE3FGHIM1M2RWXY/LB1

Departure

Time 2026-05-01 15:26
Airport Offutt Air Force Base (KOFF)

Arrival

Time N/A
Airport Edwards Air Force Base (KEDW)
Time Latitude Longitude Altitude Speed Heading
2026-05-01 14:49 41.11235 -95.90545 989 ft 0 kts 39°
2026-05-01 15:23 41.11246 -95.90533 989 ft 2 kts 41°
2026-05-01 15:23 41.11251 -95.90527 993 ft 0 kts 44°
2026-05-01 15:23 41.11247 -95.90500 989 ft 13 kts 116°
2026-05-01 15:24 41.11191 -95.90298 989 ft 26 kts 101°
2026-05-01 15:24 41.11105 -95.90108 987 ft 24 kts 126°
2026-05-01 15:24 41.11047 -95.89925 986 ft 21 kts 73°
2026-05-01 15:24 41.11135 -95.89787 982 ft 19 kts 38°
2026-05-01 15:25 41.11239 -95.89744 991 ft 17 kts 323°
2026-05-01 15:25 41.11423 -95.90033 991 ft 69 kts 309°
2026-05-01 15:25 41.11836 -95.90690 1004 ft 114 kts 310°
2026-05-01 15:25 41.12410 -95.91617 1054 ft 140 kts 310°
2026-05-01 15:26 41.12996 -95.92541 1597 ft 133 kts 312°
2026-05-01 15:26 41.13648 -95.93547 1902 ft 147 kts 312°
2026-05-01 15:26 41.14207 -95.94397 2925 ft 97 kts 313°
2026-05-01 15:26 41.14650 -95.95073 3260 ft 108 kts 311°
2026-05-01 15:27 41.15183 -95.95898 3540 ft 125 kts 310°
2026-05-01 15:27 41.15800 -95.96856 4205 ft 143 kts 311°
2026-05-01 15:27 41.16460 -95.97870 5053 ft 151 kts 311°
2026-05-01 15:28 41.17818 -95.99957 6455 ft 149 kts 310°
2026-05-01 15:28 41.18304 -96.01210 6963 ft 167 kts 283°
2026-05-01 15:28 41.18281 -96.02879 7094 ft 192 kts 257°
2026-05-01 15:29 41.17160 -96.05991 7281 ft 187 kts 250°
2026-05-01 15:29 41.16606 -96.07557 7458 ft 187 kts 249°
2026-05-01 15:29 41.15471 -96.10700 7604 ft 198 kts 249°
2026-05-01 15:30 41.14251 -96.14054 7609 ft 197 kts 249°
2026-05-01 15:31 41.12059 -96.20157 7225 ft 175 kts 250°
2026-05-01 15:31 41.10925 -96.23348 7447 ft 207 kts 249°
2026-05-01 15:32 41.09992 -96.25846 10623 ft 154 kts 251°
2026-05-01 15:32 41.08854 -96.29206 12345 ft 159 kts 252°
2026-05-01 15:33 41.07349 -96.33583 14501 ft 206 kts 253°
2026-05-01 15:34 41.05867 -96.37848 16605 ft 247 kts 253°